FENGYUN 1C DEB

Satellite information

Favourite Embed

Satellite Type and Status

DEBRISIN ORBIT

Key statistics

Satellite FENGYUN 1C DEB at a glance.

Uptime

9496

Days in orbit

Revolutions

≈ 14.2

Per day

Orbit

SSO

Sun Synchronous Orbit

Inclination

98.5

Latest

Satellite identification and parameters

Extended collection of information and parameters for FENGYUN 1C DEB.

Object identification

Identified? True

Debris? True

Object name: FENGYUN 1C DEB

International designator: 1999-025FX

Object number (NORAD): 29877

Object ID (CCSDS): 29877

Country: PEOPLES REPUBLIC OF CHINA (PRC)

Current information (Y/N): Y

RCS size: SMALL

Orbital parameters

Period: 101.104 minutes

Inclination: 98.5385 deg

SMA: 7189.064 km

Apoapsis: 845.392 km

Periapsis: 776.466 km

RAAN: 139.3504 deg

Eccentricy: 0.0047938

Argument of periapsis: 136.1032 deg

Mean anomaly: 254.3077 deg

Mean motion: 14.24276314 rev/day

Mean motion (dot): 0.00001066 rev/day2

B* drag term: 0.00047427 1/REarth

Two-line elements (TLE)

Creation date: May 8, 2025, 3:01 a.m.

Reference frame: TEME

Reference center: EARTH

Epoch: May 7, 2025, 11:19 p.m. UTC

TLE line 0: 0 FENGYUN 1C DEB

TLE line 1: 1 29877U 99025FX 25127.97177693 .00001066 00000-0 47427-3 0 9994

TLE line 2: 2 29877 98.5385 139.3504 0047938 136.1032 254.3077 14.24276314948592

Live tracking on map

Real-time ground track for satellite FENGYUN 1C DEB.

In-orbit conjunctions

A list of the most updated potential collisions computed for object FENGYUN 1C DEB.

Target Orbit TCA Probability of collision Miss distance Type
CZ-6A DEB LEO 2025-01-03 19:50:42 0.0001101207 604.0 (m) DEBRIS
CZ-6A DEB LEO 2024-11-03 05:32:35 0.0001522787 627.0 (m) DEBRIS
COSMOS 1275 DEB LEO 2024-08-12 13:56:05 0.000110429 154.0 (m) DEBRIS

Associated space launch

Chinese polar orbiting meteorological satellite

FENGYUN 1C DEB was lifted into orbit during the mission ‘Long March 4B | Feng Yun 1C’, on board a Long March 4B space rocket.

The launch took place on May 10, 1999, 1:33 a.m. from Launch Complex 7.

For more information about the launch, click the button.

Launch to space Long March 4B | Feng Yun 1C
Long March 4B | Feng Yun 1C

Agency: N/A

Status: Launch Successful

Launch date: May 10, 1999, 1:33 a.m. UTC

Rocket: Long March 4B

Launch pad: Launch Complex 7

Location: Taiyuan Satellite Launch Center, People's Republic of China

...

Latest news about this satellite

There are no fresh news available about this satellite. Check back as we update our databases every day.


Newsletter sign-up

Weekly statistics, charts and insights to help you stay on top of the space industry.